Location: Newark
(41.0400°S, 62.7845°W)
Time: 16:38:57
(UTC+00:00)

Vanguard 2 Rocket - Pass Details

Date: 04 December 2021
Orbit: 553 x 3325 km, 32.9° (Epoch: 23 January)

Event Time Altitude Azimuth Distance (km) Brightness Sun altitude
Rises 12:36:23 0° 272° (W) 6,638 10.9 43.3°
Reaches altitude 10° 12:41:30 10° 275° (W) 5,240 10.4 44.3°
Maximum altitude 12:54:46 52° 345° (NNW) 2,016 9.2 46.7°
Drops below altitude 10° 13:02:19 10° 59° (ENE) 3,065 10.5 48.1°
Sets 13:04:33 0° 64° (ENE) 3,763 10.7 48.5°
